Regional Weather Roundup
Issued by NWS

Home | Current Version | Previous Version | Text Only | Print | Product List | Glossary On
Versions: 1 2 3 4 5 6 7 8 9 10 11 12 13 14 15 16 17 18 19 20 21 22 23 24 25 26 27 28 29 30 31 32 33 34 35 36 37 38 39 40 41 42 43 44 45 46 47 48 49 50
000
ASUS46 KSEW 010210
RWRWA

WASHINGTON REGIONAL WEATHER ROUNDUP
NATIONAL WEATHER SERVICE SEATTLE WA
700 PM PDT MON AUG 31 2015

NOTE:"FAIR" INDICATES FEW OR NO CLOUDS BELOW 12,000 FEET WITH NO
SIGNIFICANT WEATHER AND/OR OBSTRUCTIONS TO VISIBILITY.

WAZ505-507>509-010300-
SEATTLE, TACOMA, EVERETT, AND VICINITY

CITY           SKY/WX    TMP DP  RH WIND       PRES   REMARKS
EVERETT        CLOUDY    62  54  74 S17G26    29.89F
BOEING FIELD   CLOUDY    66  58  75 VRB3      29.90F
RENTON         CLOUDY    65  57  75 S14       29.91S
SEATAC AIRPORT CLOUDY    64  56  75 SW10      29.92F
JBLM-MCCHORD   CLOUDY    66  55  67 SW15G22   29.91F
PUYALLUP       FAIR      64  59  82 VRB7      29.92F
BREMERTON      CLOUDY    63  57  82 S16G28    29.93F
JBLM-FT LEWIS  CLOUDY    66  55  66 S13G22    29.91F
TACOMA NARROWS CLOUDY    65  54  67 SW14G21   29.92F
$$

WAZ001-503-506-510-514-515-010300-
NORTH INTERIOR

CITY           SKY/WX    TMP DP  RH WIND       PRES   REMARKS
BELLINGHAM     CLOUDY    62  58  86 S7        29.86F
FRIDAY HARBOR  CLOUDY    59  57  93 CALM      29.85F
EASTSOUND      MOCLDY    59  57  94 S7        29.83F
PORT ANGELES   CLOUDY    61  56  83 E6        29.84F
PORT TOWNSEND  CLOUDY    61  55  82 NW6       29.84S
NAS WHIDBEY    CLOUDY    62  58  86 SE8       29.88F
ARLINGTON      CLOUDY    61  54  77 SE13G20   29.88S
BURLINGTON     MOCLDY    63  59  88 SE13      29.86F
$$

WAZ020-022-039-040-504-511-512-010300-
SOUTHWEST INTERIOR

CITY           SKY/WX    TMP DP  RH WIND       PRES   REMARKS
SHELTON        CLOUDY    62  58  86 SW14      29.89F
OLYMPIA        CLOUDY    66  53  63 SW9       29.92F
CHEHALIS       PTCLDY    68  55  64 SW5       29.94F
KELSO          NOT AVBL
VANCOUVER      CLOUDY    71  52  50 W9        29.95S
SCAPPOOSE, OR  MOCLDY    70  52  52 SW8       29.94F
PORTLAND, OR   MOCLDY    72  53  51 W10       29.95F
$$

WAZ021-516-517-010300-
WASHINGTON COAST

CITY           SKY/WX    TMP DP  RH WIND       PRES   REMARKS
FORKS          CLOUDY    60  59  96 S9        29.87F
HOQUIAM        CLOUDY    63  59  87 S13       29.93F FOG
ASTORIA, OR    CLOUDY    64  59  83 S8        29.95F
$$

WAZ019-023-024-040-518-519-010300-
CASCADE MOUNTAINS AND COLUMBIA GORGE

CITY           SKY/WX    TMP DP  RH WIND       PRES   REMARKS
TROUTDALE, OR  MOCLDY    72  53  51 VRB3      29.95S
THE DALLES, OR PTCLDY    71  51  49 NW16G31   29.89S
$$

WAZ026-027-041>044-520-521-010300-
EAST SLOPES

CITY           SKY/WX    TMP DP  RH WIND       PRES   REMARKS
OMAK           CLOUDY    66  53  63 NE5       29.82F
WENATCHEE      CLOUDY    72  44  36 SW5       29.84F
ELLENSBURG     CLOUDY    67  47  48 NW18G26   29.88F
YAKIMA         MOCLDY    75  44  33 NW13      29.87R
$$

WAZ028-034-035-010300-
COLUMBIA BASIN

CITY           SKY/WX    TMP DP  RH WIND       PRES   REMARKS
EPHRATA        MOCLDY    71  45  39 SW5       29.83F
MOSES LAKE     MOCLDY    73  45  36 W8        29.84F
PASCO          PTCLDY    77  49  37 W7        29.82F
HERMISTON, OR  MOCLDY    77  49  37 W9        29.85F
$$

WAZ036>038-010300-
NORTHEAST WASHINGTON

CITY           SKY/WX    TMP DP  RH WIND       PRES   REMARKS
SPOKANE GEIGER MOCLDY    68  44  42 S9        29.88F
SPOKANE FELTS  MOCLDY    71  45  39 SW6       29.88F
FAIRCHILD AFB  CLOUDY    68  45  44 S7        29.88F
COEURDALENE,ID CLOUDY    68  45  42 W6        29.89S
DEER PARK      MOCLDY    67  46  47 S10       29.88F
$$

WAZ029>033-010300-
SOUTHEAST WASHINGTON

CITY           SKY/WX    TMP DP  RH WIND       PRES   REMARKS
PULLMAN        MOCLDY    68  43  40 W8        29.93F
LEWISTON, ID   CLOUDY    76  44  32 NW8       29.86S
WALLA WALLA    MOCLDY    76  45  33 SW3       29.87F
PENDLETON, OR  MOCLDY    74  45  35 NW3       29.88F
$$


USA.gov is the U.S. government's official web portal to all federal, state and local government web resources and services.